Location: ???????
(55.3754°N, 39.3545°E)
Time: 09:30:30
(UTC+00:00)

Cosmos 1782 - Pass Details

Date: 14 April 2026
Orbit: 459 x 464 km, 82.5° (Epoch: 19 May)

Event Time Altitude Azimuth Distance (km) Brightness Sun altitude
Exits shadow 21:41:56 37° 42° (NE) 738 3.8 -24.8°
Drops below altitude 10° 21:44:19 10° 20° (NNE) 1,621 6.2 -24.8°
Sets 21:46:26 0° 15° (NNE) 2,500 7.5 -24.8°
